Lubbock, TX

12:53 PM CST on December 06, 2019 (GMT -0600)
Lubbock International

Weather History for KLBB - May, 2019

Change the Weather History Date:

Thursday, May 30, 2019

  Actual Average Record
Temperature  
Mean Temperature 68 °F 74 °F  
Max Temperature 80 °F 87 °F 106 °F (2018)
Min Temperature 55 °F 60 °F 45 °F (1947)
Degree Days  
Heating Degree Days 0 0  
Month to date heating degree days 52 39  
Since 1 July heating degree days 3449 3376  
Cooling Degree Days 2 9  
Month to date cooling degree days 142 180  
Year to date cooling degree days 205 236  
Growing Degree Days 18 (Base 50)    
Moisture  
Dew Point 53 °F    
Average Humidity 65    
Maximum Humidity 87    
Minimum Humidity 32    
Precipitation  
Precipitation 0.01 in 0.09 in 1.70 in (1971)
Month to date precipitation 3.94 2.20  
Year to date precipitation 6.86 6.11  
Snow  
Snow 0.00 in 0.00 in 0.00 in (2002)
Month to date snowfall T 0.0  
Since 1 July snowfall 10.1 8.2  
Snow Depth 0.00 in    
Sea Level Pressure  
Sea Level Pressure 29.99 in    
Wind  
Wind Speed 8 mph ()    
Max Wind Speed 20 mph    
Max Gust Speed 23 mph    
Visibility 10.0 miles    
Events Thunderstorm    
T = Trace of Precipitation, MM = Missing Value Source: Averaged Metar Reports

Daily Weather History Graph

Daily Weather History Graph

Search for Another Location

Airport or City:

Astronomy

May. 30, 2019 Rise Set
Actual Time 6:38 AM CDT 8:51 PM CDT
Civil Twilight 6:10 AM CDT 9:19 PM CDT
Nautical Twilight 5:35 AM CDT 9:54 PM CDT
Astronomical Twilight 4:57 AM CDT 10:32 PM CDT
Moon 4:30 AM CDT (5/30) 5:14 PM CDT (5/30)
Length of Visible Light 15h 09m
Length of Day
14h 12m
Waning Crescent, 15% of the Moon is Illuminated
May 30
Waning Crescent
Jun 3
New
Jun 10
First Quarter
Jun 17
Full
Jun 25
Last Quarter

Hourly Weather History & Observations

Time (CDT) Temp. Dew Point Humidity Pressure Visibility Wind Dir Wind Speed Gust Speed Precip Events Conditions
12:53 AM 63.0 °F 54.0 °F 72% 29.87 in 10.0 mi ENE 11.5 mph - N/A   Clear
1:53 AM 61.0 °F 52.0 °F 72% 29.86 in 10.0 mi ENE 13.8 mph - N/A   Clear
2:53 AM 59.0 °F 51.1 °F 75% 29.87 in 10.0 mi ENE 9.2 mph - N/A   Clear
3:53 AM 57.9 °F 52.0 °F 81% 29.89 in 10.0 mi ENE 8.1 mph - N/A   Clear
4:53 AM 55.9 °F 51.1 °F 84% 29.93 in 10.0 mi East 5.8 mph - N/A   Partly Cloudy
5:53 AM 55.9 °F 51.1 °F 84% 29.93 in 10.0 mi NE 10.4 mph - N/A   Partly Cloudy
6:53 AM 55.9 °F 51.1 °F 84% 29.96 in 10.0 mi East 5.8 mph - N/A   Partly Cloudy
7:23 AM 57.0 °F 52.0 °F 83% 30.09 in 10.0 mi East 5.8 mph - N/A   Mostly Cloudy
7:53 AM 57.9 °F 54.0 °F 87% 29.99 in 10.0 mi ESE 5.8 mph - N/A   Mostly Cloudy
8:02 AM 59.0 °F 55.0 °F 87% 30.10 in 10.0 mi ESE 5.8 mph - N/A   Mostly Cloudy
8:24 AM 61.0 °F 55.9 °F 83% 30.11 in 10.0 mi East 8.1 mph - N/A   Scattered Clouds
8:40 AM 62.1 °F 55.9 °F 80% 30.12 in 10.0 mi East 6.9 mph - N/A   Scattered Clouds
8:53 AM 62.1 °F 55.9 °F 80% 30.01 in 10.0 mi East 8.1 mph - N/A   Scattered Clouds
9:05 AM 63.0 °F 57.0 °F 81% 30.12 in 10.0 mi East 9.2 mph - N/A   Mostly Cloudy
9:18 AM 63.0 °F 55.9 °F 78% 30.12 in 10.0 mi East 8.1 mph - N/A   Mostly Cloudy
9:28 AM 63.0 °F 55.9 °F 78% 30.12 in 10.0 mi ENE 10.4 mph - N/A   Scattered Clouds
9:53 AM 66.0 °F 55.9 °F 70% 30.02 in 10.0 mi East 6.9 mph - N/A   Scattered Clouds
10:53 AM 68.0 °F 54.0 °F 61% 30.02 in 10.0 mi East 8.1 mph - N/A   Partly Cloudy
11:53 AM 71.1 °F 52.0 °F 51% 30.02 in 10.0 mi East 9.2 mph - N/A   Partly Cloudy
12:53 PM 73.9 °F 50.0 °F 43% 30.01 in 10.0 mi ENE 6.9 mph - N/A   Partly Cloudy
1:53 PM 75.9 °F 51.1 °F 42% 29.99 in 10.0 mi ENE 10.4 mph - N/A   Partly Cloudy
2:53 PM 78.1 °F 51.1 °F 39% 29.96 in 10.0 mi East 15.0 mph 23.0 mph N/A   Partly Cloudy
3:53 PM 79.0 °F 48.0 °F 34% 29.94 in 10.0 mi SE 12.7 mph 20.7 mph N/A   Partly Cloudy
4:53 PM 79.0 °F 48.0 °F 34% 29.91 in 10.0 mi SE 12.7 mph 20.7 mph N/A   Partly Cloudy
5:53 PM 79.0 °F 46.9 °F 32% 29.90 in 10.0 mi East 8.1 mph - N/A   Partly Cloudy
6:53 PM 78.1 °F 46.9 °F 33% 29.90 in 10.0 mi SSE 15.0 mph - N/A   Partly Cloudy
7:53 PM 75.9 °F 51.1 °F 42% 29.89 in 10.0 mi SE 12.7 mph - N/A   Partly Cloudy
8:53 PM 72.0 °F 53.1 °F 51% 29.90 in 10.0 mi SE 10.4 mph - N/A   Scattered Clouds
9:53 PM 69.1 °F 55.0 °F 61% 29.94 in 10.0 mi SE 8.1 mph - N/A   Mostly Cloudy
10:53 PM 68.0 °F 55.0 °F 63% 29.97 in 10.0 mi ESE 4.6 mph - N/A   Overcast
11:30 PM 68.0 °F 55.0 °F 63% 30.09 in 10.0 mi East 5.8 mph - N/A Thunderstorm Thunderstorm
11:53 PM 68.0 °F 55.9 °F 65% 29.99 in 10.0 mi South 10.4 mph - N/A Thunderstorm Thunderstorm